Regional Weather Roundup
Issued by NWS

Home | Current Version | Previous Version | Text Only | Print | Product List | Glossary On
Versions: 1 2 3 4 5 6 7 8 9 10 11 12 13 14 15 16 17 18 19 20 21 22 23 24 25 26 27 28 29 30 31 32 33 34 35 36 37 38 39 40 41 42 43 44 45 46 47 48 49 50
000
ASUS42 KKEY 040010
RWRKEY

FLORIDA REGIONAL WEATHER ROUNDUP FOR THE FLORIDA KEYS
NATIONAL WEATHER SERVICE KEY WEST FLORIDA
800 PM EDT FRI JUL 03 2015

...SOUTH FLORIDA AND THE KEYS...

CITY           SKY/WX    TMP DP  RH WIND       PRES   REMARKS
FORT MYERS     TSTM      74  72  93 N8        30.08R
SW REGIONAL AP LGT RAIN  72  69  90 N6        30.08R
NAPLES         CLOUDY    75  72  90 NE6       30.07R
MIAMI          MOCLDY    81  69  67 NW3       30.08R
WEST KENDALL   MOCLDY    83  73  72 N6        30.07R
HOMESTEAD      CLEAR     85  76  73 E7        30.06R HX  94
MARATHON       PTCLDY    86  77  74 E9        30.06R HX  97
BOCA CHICA NAS PTCLDY    85  75  72 E12       30.05R HX  93
KEY WEST INTL  PTCLDY    86  78  77 E10       30.06R HX  98

...INTERNATIONAL WEATHER...

CITY           SKY/WX    TMP DP  RH WIND       PRES   REMARKS
NASSAU BAHAMAS MOCLDY    86  77  74 E6          N/A  HX  97
CANCUN MEXICO  MOCLDY    84  79  84 E5        29.98S HX  96
COZUMEL MEXICO PTCLDY    81  75  83 CALM      29.98R

ADJACENT COASTAL WATERS...

STATION/POSITION TIME  SKY/WX   TEMP    WIND        PRES    WAVE
                                AIR SEA DIR/SP/G            HT/PER
                 (UTC)          (F)     (DEG/KT/KT) (MB)    (FT/S)
PULASKI SHOAL LI 2300            86     130/ 10/ 11 1017.0F
SAND KEY         2350            84     100/ 12/ 13 1017.4R
SOMBRERO KEY     2300            86     100/ 15/ 17 1017.7F
LONG KEY         2300            85 88  100/ 12/ 14 1018.1R
MOLASSES REEF    2300            84 85   90/ 15/ 16 1017.3S
FOWEY ROCKS      NOT AVBL

$$


USA.gov is the U.S. government's official web portal to all federal, state and local government web resources and services.